This is the latest recevied weather packets stored in our database for station/object VA2RBQ-7. If no packets are shown the sender has not sent any weather packets the latest 10 day(s).
| Time | Temp. | Humidity | Pressure | Rain* | Wind** | Luminosity | Snow |
|---|---|---|---|---|---|---|---|
| 1788046171 | 8.33° C | 57% | 1017.7 hPa | 0 mm | - | - | - |
| 1788045869 | 8.89° C | 57% | 1017.8 hPa | 0 mm | - | - | - |
| 1788045566 | 8.33° C | 57% | 1017.7 hPa | 0 mm | - | - | - |
| 1788045263 | 8.89° C | 57% | 1017.7 hPa | 0 mm | - | - | - |
| 1788044961 | 8.89° C | 57% | 1017.7 hPa | 0 mm | - | - | - |
| 1788044658 | 8.89° C | 57% | 1017.8 hPa | 0 mm | - | - | - |
| 1788044356 | 8.89° C | 57% | 1017.8 hPa | 0 mm | - | - | - |
| 1788044060 | 8.89° C | 57% | 1017.8 hPa | 0 mm | - | - | - |
| 1788043750 | 8.89° C | 57% | 1017.7 hPa | 0 mm | - | - | - |
| 1788043448 | 8.89° C | 57% | 1017.8 hPa | 0 mm | - | - | - |
| 1788043145 | 8.89° C | 57% | 1017.8 hPa | 0 mm | - | - | - |
| 1788042843 | 8.89° C | 57% | 1017.9 hPa | 0 mm | - | - | - |
| 1788042541 | 8.89° C | 58% | 1017.9 hPa | 0 mm | - | - | - |
| 1788042238 | 8.89° C | 58% | 1018 hPa | 0 mm | - | - | - |
| 1788041944 | 9.44° C | 58% | 1017.9 hPa | 0 mm | - | - | - |
| 1788041631 | 9.44° C | 59% | 1017.9 hPa | 0 mm | - | - | - |
| 1788041329 | 10° C | 60% | 1018 hPa | 0 mm | - | - | - |
| 1788041027 | -17.78° C | 60% | 1017.9 hPa | 0 mm | - | - | - |
| 1788040720 | 10.56° C | 60% | 1017.9 hPa | 0.51 mm | - | - | - |
| 1788040418 | 10.56° C | 60% | 1018 hPa | 0.51 mm | - | - | - |
| 1788040114 | 10.56° C | 60% | 1017.9 hPa | 0.51 mm | - | - | - |
| 1788039812 | 11.11° C | 61% | 1017.9 hPa | 0.51 mm | - | - | - |
| 1788039509 | 10.56° C | 61% | 1018.1 hPa | 0.51 mm | - | - | - |
| 1788039207 | 11.11° C | 61% | 1018 hPa | 0.51 mm | - | - | - |
| 1788038905 | 11.11° C | 62% | 1018.1 hPa | 0.76 mm | - | - | - |
* Rain since midnight (hover to see other rain measurements)
** Current wind speed in m/s (hover to see current wind gust speed)